Hourly Data Report for July 21, 2021

BONAVISTA
NEWFOUNDLAND
Current Station Operator: ECCC - MSC

48°40'02.000" N
53°06'51.000" W
25.60 m
8400601
71178
AVA

Download Data

Hourly Data (July 2021)
Hourly Data Report for July 21, 2021
TIME
LST
Temp Definition
°C
Dew Point Definition
°C
Rel Hum Definition
%
Precip. Amount Definition
mm

Wind Dir Definition
10's deg

Wind Spd Definition
km/h
Visibility Definition
km
Stn Press Definition
kPa
Hmdx Definition


Wind Chill Definition


Weather Definition


00:30 17.9 17.0 95 0.0 22 30   100.59     LegendNANA
01:30 17.9 17.0 94 0.0 22 26   100.52     LegendNANA
02:30 17.6 16.5 93 0.0 22 28   100.50     LegendNANA
03:30 16.8 15.8 94 0.0 23 28   100.52     LegendNANA
04:30 16.3 15.6 96 0.0 23 30   100.57     LegendNANA
05:30 17.1 16.3 95 0.0 22 22   100.61     LegendNANA
06:30 17.7 16.7 94 0.0 23 19   100.65     LegendNANA
07:30 17.5 16.4 94 0.0 25 15   100.73     LegendNANA
08:30 13.3 12.0 92 0.0 36 30   100.83     LegendNANA
09:30 14.2 12.5 89 0.0 35 24   100.88     LegendNANA
10:30 13.1 11.8 92 0.0 35 31   100.94     LegendNANA
11:30 13.2 11.2 88 0.0 35 30   101.00     LegendNANA
12:30 13.2 11.5 89 0.0 36 30   101.02     LegendNANA
13:30 13.0 11.4 90 0.0 36 33   101.06     LegendNANA
14:30 13.0 11.0 87 0.0 1 35   101.08     LegendNANA
15:30 12.2 10.4 88 0.0 1 34   101.14     LegendNANA
16:30 11.6 10.0 90 0.0 2 33   101.17     LegendNANA
17:30 10.8 9.6 93 0.0 3 31   101.20     LegendNANA
18:30 10.3 9.1 92 0.0 3 26   101.25     LegendNANA
19:30 9.7 8.8 94 0.0 4 27   101.22     LegendNANA
20:30 9.5 8.7 95 0.0 3 25   101.34     LegendNANA
21:30 9.4 8.6 94 0.0 4 19   101.38     LegendNANA
22:30 9.4 8.6 95 0.0 3 19   101.37     LegendNANA
23:30 9.3 8.4 95 0.0 5 19   101.37     LegendNANA

Notes on Data Quality.

Legend

  • E = Estimated
  • M = Missing
  • NA = Not Available*
  • [empty] = Indicates an unobserved value
Date modified: